Location: Flotzheim
(48.8375°N, 10.8136°E)
Time: 04:12:19
(UTC+00:00)

H-2A R/B - Pass Details

Date: 23 January 2021
Orbit: 734 x 836 km, 98.2° (Epoch: 26 February)

Event Time Altitude Azimuth Distance (km) Brightness Sun altitude
Rises 16:38:14 0° 124° (SE) 3,196 4.9 -6.5°
Reaches altitude 10° 16:40:54 10° 110° (ESE) 2,290 4.0 -6.9°
Maximum altitude 16:44:47 23° 60° (ENE) 1,601 3.1 -7.5°
Drops below altitude 10° 16:48:46 10° 9° (N) 2,351 4.2 -8.1°
Sets 16:51:32 0° 356° (N) 3,304 5.1 -8.5°
